Flag for United Kingdom Weather past 2 weeks in Edinburgh, Scotland, United Kingdom

Now
36 °F

Sunny.


Feels Like: 31 °F
Forecast: 33 / 49 °F
Wind: 6 mph from Southwest

Location: Edinburgh Airport

Current Time: Apr 26, 2015 at 8:17:32 AM

Latest Report: Apr 26, 2015 at 7:20 AM


Visibility: 10 mi

Pressure: 29.80 "Hg

Humidity: 87%

Dew point: 32 °F

Location of EdinburghLocation

Historic Weather in Edinburgh — Graph

°F

Edinburgh temperature yesterday

Maximum temperature yesterday: 54 °F (at 4:20 PM)
Minimum temperature yesterday: 37 °F (at 11:50 PM)
Average temperature yesterday: 47 °F

Past Weeks' High & Low Weather Summary

 TemperatureHumidityPressure
High66 °F (Apr 23, 1:20 PM)100% (Apr 16, 6:50 AM)30.60 "Hg (Apr 16, 6:50 AM)
Low30 °F (Apr 16, 4:50 AM)32% (Apr 21, 6:20 PM)29.45 "Hg (Apr 25, 12:20 AM)
Average47 °F76%30.14 "Hg
* Reported Apr 11 7:20 AM — Apr 26 7:20 AM, Edinburgh, Weather by CustomWeather, © 2015

Note: Actual official high and low records may vary slightly from our data, if they occured in-between our weather recording intervals... More about our weather records

Advertising

Edinburgh weather history for previous 24 hours

 ConditionsComfort  
Time TempWeatherWind HumidityBarometerVisibility
7:20 AM
Sun, Apr 26
36 °FSunny.6 mph87%29.80 "Hg10 mi
6:50 AM34 °FSunny.6 mph87%29.80 "Hg10 mi
6:20 AM34 °FClear.6 mph87%29.80 "Hg10 mi
5:50 AM34 °FClear.7 mph81%29.80 "Hg10 mi
5:20 AM34 °FClear.7 mph81%29.80 "Hg10 mi
4:50 AM34 °FClear.8 mph81%29.80 "Hg10 mi
4:20 AM34 °FClear.8 mph81%29.80 "Hg10 mi
3:50 AM34 °FClear.7 mph81%29.77 "Hg10 mi
3:20 AM34 °FClear.7 mph81%29.77 "Hg10 mi
2:50 AM32 °FClear.6 mph80%29.77 "Hg10 mi
2:20 AM36 °FChilly.3 mph75%29.77 "HgN/A
1:50 AM36 °FClear.6 mph75%29.77 "Hg10 mi
1:20 AM36 °FChilly.7 mph75%29.77 "HgN/A
12:50 AM36 °FChilly.8 mph75%29.77 "HgN/A
12:20 AM34 °FClear.9 mph81%29.77 "Hg10 mi
11:50 PM
Sat, Apr 25
37 °FClear.7 mph70%29.77 "Hg10 mi
11:20 PM39 °FClear.8 mph65%29.74 "Hg10 mi
10:20 PM41 °FClear.9 mph57%29.74 "Hg10 mi
9:50 PM39 °FClear.9 mph56%29.74 "Hg10 mi
9:20 PM45 °FPassing clouds.9 mph42%29.71 "HgN/A
8:50 PM46 °FPassing clouds.10 mph43%29.71 "HgN/A
8:20 PM48 °FPassing clouds.8 mph46%29.68 "HgN/A
7:50 PM48 °FPassing clouds.8 mph43%29.68 "HgN/A
7:20 PM50 °FScattered clouds.8 mph43%29.65 "HgN/A
6:50 PM50 °FScattered clouds.6 mph43%29.65 "HgN/A
6:20 PM50 °FScattered clouds.7 mph43%29.65 "HgN/A
5:50 PM52 °FScattered clouds.8 mph44%29.65 "HgN/A
5:20 PM52 °FScattered clouds.9 mph38%29.65 "HgN/A
4:50 PM54 °FScattered clouds.12 mph38%29.62 "HgN/A
4:20 PM54 °FScattered clouds.9 mph41%29.62 "HgN/A
3:50 PM52 °FScattered clouds.9 mph41%29.62 "HgN/A
3:20 PM52 °FScattered clouds.10 mph41%29.62 "HgN/A
2:50 PM52 °FScattered clouds.9 mph41%29.62 "HgN/A
2:20 PM50 °FScattered clouds.9 mph47%29.59 "HgN/A
1:50 PM50 °FCool.9 mph43%29.59 "HgN/A
1:20 PM50 °FPassing clouds.9 mph47%29.59 "HgN/A
12:50 PM48 °FPassing clouds.9 mph46%29.59 "HgN/A
12:20 PM48 °FScattered clouds.10 mph50%29.59 "HgN/A
11:50 AM46 °FPassing clouds.8 mph57%29.59 "HgN/A
11:20 AM45 °FScattered clouds.8 mph57%29.56 "HgN/A
10:50 AM45 °FPassing clouds.8 mph66%29.56 "HgN/A
10:20 AM43 °FScattered clouds.8 mph71%29.56 "HgN/A
9:50 AM43 °FScattered clouds.No wind81%29.53 "HgN/A
9:20 AM41 °FBroken clouds.2 mph87%29.53 "HgN/A
8:50 AM41 °FBroken clouds.2 mph87%29.53 "HgN/A
8:20 AM41 °FLight rain. Partly sunny.8 mph87%29.50 "HgN/A
Weather by CustomWeather, © 2015

See weather overviewHow to use our weather pages